Terug naar catalogus

CZ-6A DEB

ActiefSSO
NORAD 54325·DEBRIS·🇨🇳 China

Gelanceerd Nov 11, 2022 vanaf Taiyuan Satellite Launch Center

Loading…

Volgende Passages (komende 24 uur)

TLE

VersSource: Space-Track

Epoch: Sep 14, 2026, 06:48 UTC

1 54325U 22151BU  26257.28399873  .00000166  00000-0  11070-3 0  9996
2 54325  98.8106 257.8468 0033911  76.3786 284.1159 14.13457138197438

Volg CZ-6A DEB in realtime met AllMySat

Download on the App Store